DW4238 Weather Reports


time (UTC)temp
C
wind
direction
speed
KPH
gust
KPH
rain 1hr
cm
rain 24hr
cm
rain mn
cm
humidity
%
barometer
mb
20260507200558 21 5 14.5 27.4 0.00 0.00 0.00 67 1014.9
20260507200027 22 5 9.7 19.3 0.00 0.00 0.00 67 1015.0
20260507195530 22 17 9.7 16.1 0.00 0.00 0.00 68 1014.9
20260507195141 22 37 11.3 17.7 0.00 0.00 0.00 67 1015.0
20260507194539 22 13 11.3 19.3 0.00 0.00 0.00 68 1014.9
20260507194029 22 59 9.7 17.7 0.00 0.00 0.00 67 1014.7
20260507193047 21 33 11.3 24.1 0.00 0.00 0.00 69 1014.8
20260507192539 21 56 11.3 24.1 0.00 0.00 0.00 69 1014.6
20260507191604 21 52 12.9 24.1 0.00 0.00 0.00 69 1014.6
20260507191053 21 48 14.5 24.1 0.00 0.00 0.00 70 1014.5
20260507190553 21 344 9.7 24.1 0.00 0.00 0.00 71 1014.6
20260507190023 21 21 11.3 22.5 0.00 0.00 0.00 71 1014.8
20260507185527 21 351 9.7 22.5 0.00 0.00 0.00 70 1015.0
20260507185053 21 36 11.3 20.9 0.00 0.00 0.00 71 1015.0
20260507184523 21 23 12.9 20.9 0.00 0.00 0.00 70 1015.2
20260507184134 21 65 11.3 19.3 0.00 0.00 0.00 72 1015.2
20260507183619 21 25 9.7 20.9 0.00 0.00 0.00 73 1015.2
20260507183044 20 67 12.9 20.9 0.00 0.00 0.00 73 1015.2
20260507182552 20 30 9.7 22.5 0.00 0.00 0.00 74 1015.5
20260507181617 19 26 11.3 22.5 0.00 0.00 0.00 75 1016.2
20260507181059 19 65 11.3 22.5 0.00 0.00 0.00 76 1016.0
20260507180057 18 5 9.7 17.7 0.00 0.00 0.00 77 1016.4
20260507175607 18 316 8.0 16.1 0.00 0.00 0.00 77 1016.9
20260507174608 18 350 4.8 16.1 0.00 0.00 0.00 78 1016.8
20260507174057 17 346 8.0 20.9 0.00 0.00 0.00 77 1016.7
20260507173057 18 351 8.0 14.5 0.00 0.00 0.00 78 1016.4
20260507172604 17 19 8.0 14.5 0.00 0.00 0.00 79 1016.3
20260507172111 17 22 6.4 14.5 0.00 0.00 0.00 78 1016.5
20260507171539 17 39 8.0 16.1 0.00 0.00 0.00 78 1016.5
20260507171043 17 331 9.7 16.1 0.00 0.00 0.00 78 1016.4
20260507170110 17 29 6.4 19.3 0.00 0.00 0.00 80 1016.7
20260507165613 17 31 8.0 19.3 0.00 0.00 0.00 80 1016.7
20260507165122 17 315 11.3 19.3 0.00 0.00 0.00 80 1016.8
20260507164540 16 355 12.9 19.3 0.00 0.00 0.00 80 1016.9
20260507164034 16 355 11.3 17.7 0.00 0.00 0.00 81 1016.9
20260507163056 16 355 9.7 19.3 0.00 0.00 0.00 82 1016.9
20260507162558 16 360 12.9 19.3 0.00 0.00 0.00 81 1016.9
20260507161605 16 40 6.4 17.7 0.00 0.00 0.00 82 1016.9
20260507161108 16 329 11.3 22.5 0.00 0.00 0.00 81 1016.9
20260507160620 16 355 12.9 22.5 0.00 0.00 0.00 81 1016.8
20260507160040 17 339 14.5 22.5 0.00 0.00 0.00 81 1016.7
20260507155550 17 342 9.7 24.1 0.00 0.00 0.00 82 1016.5
20260507154615 16 355 16.1 24.1 0.00 0.00 0.00 82 1016.0
20260507154024 16 34 12.9 25.7 0.00 0.00 0.00 83 1015.9
20260507153528 16 355 16.1 25.7 0.00 0.00 0.00 83 1015.8
20260507153141 16 350 12.9 20.9 0.00 0.00 0.00 83 1016.0
20260507152523 16 360 12.9 22.5 0.00 0.00 0.00 84 1016.0
20260507151553 16 42 11.3 22.5 0.00 0.00 0.00 84 1015.8
20260507151057 16 5 12.9 22.5 0.00 0.00 0.00 85 1015.8
20260507150608 15 21 11.3 22.5 0.00 0.00 0.00 85 1016.0
20260507150039 15 49 14.5 22.5 0.00 0.00 0.00 85 1015.9
20260507145541 15 38 9.7 19.3 0.00 0.00 0.00 85 1016.1
20260507145051 15 5 14.5 19.3 0.00 0.00 0.00 85 1016.4
20260507144535 15 36 11.3 17.7 0.00 0.00 0.00 85 1016.6
20260507144044 15 37 8.0 20.9 0.00 0.00 0.00 86 1016.6
20260507143044 15 14 11.3 20.9 0.00 0.00 0.00 86 1016.9
20260507142554 15 44 8.0 17.7 0.00 0.00 0.00 86 1016.7
20260507142057 15 15 11.3 22.5 0.00 0.00 0.00 86 1016.6
20260507141525 15 20 11.3 22.5 0.00 0.00 0.00 86 1016.5
20260507141029 15 18 8.0 25.7 0.00 0.00 0.00 86 1016.5
20260507140636 15 20 12.9 25.7 0.00 0.00 0.00 86 1016.4
20260507140046 15 13 11.3 22.5 0.00 0.00 0.00 86 1016.5
20260507135547 15 36 11.3 22.5 0.00 0.00 0.00 86 1016.4
20260507134607 15 30 14.5 25.7 0.00 0.00 0.00 86 1016.4
20260507134117 15 18 11.3 25.7 0.00 0.00 0.00 86 1016.4
20260507133617 15 12 11.3 24.1 0.00 0.00 0.00 86 1016.3
20260507133026 15 16 12.9 24.1 0.00 0.00 0.00 86 1016.2
20260507132537 15 14 12.9 20.9 0.00 0.00 0.00 86 1016.4
20260507131559 15 28 8.0 20.9 0.00 0.00 0.00 86 1016.4
20260507131114 16 22 12.9 24.1 0.00 0.00 0.00 86 1016.4
20260507130611 16 18 12.9 24.1 0.00 0.00 0.00 86 1016.3
20260507130036 16 348 12.9 19.3 0.00 0.00 0.00 86 1016.3
20260507125540 16 27 11.3 17.7 0.00 0.00 0.00 86 1016.0
20260507124608 16 337 9.7 24.1 0.00 0.00 0.00 86 1015.8
20260507124111 16 26 9.7 24.1 0.00 0.00 0.00 86 1015.8
20260507123109 16 15 11.3 19.3 0.00 0.00 0.00 87 1015.8
20260507122618 16 27 11.3 20.9 0.00 0.00 0.00 87 1015.7
20260507122119 16 15 16.1 27.4 0.00 0.00 0.00 87 1015.7
20260507121549 16 334 17.7 27.4 0.00 0.00 0.00 88 1015.6
20260507121036 16 355 16.1 25.7 0.00 0.00 0.00 88 1015.5
20260507120640 16 338 17.7 24.1 0.00 0.00 0.00 88 1015.5
20260507120047 16 355 11.3 22.5 0.00 0.00 0.00 88 1015.3
20260507115529 16 355 11.3 20.9 0.00 0.00 0.00 88 1015.3
20260507114559 16 355 11.3 20.9 0.00 0.00 0.00 88 1014.9
20260507114102 16 333 14.5 20.9 0.00 0.00 0.00 88 1014.8
20260507113108 16 343 11.3 20.9 0.00 0.00 0.00 88 1014.8
20260507112610 16 5 11.3 19.3 0.00 0.00 0.00 88 1014.7
20260507111614 16 9 9.7 19.3 0.00 0.00 0.00 88 1014.6
20260507111103 16 346 8.0 17.7 0.00 0.00 0.00 88 1014.7
20260507110602 16 355 11.3 17.7 0.00 0.00 0.00 88 1014.6
20260507110032 16 22 4.8 17.7 0.00 0.00 0.00 88 1014.7
20260507105541 16 5 8.0 19.3 0.00 0.00 0.00 88 1015.0
20260507104539 16 315 8.0 19.3 0.00 0.00 0.00 88 1015.0
20260507104041 16 355 8.0 19.3 0.00 0.00 0.00 88 1014.3
20260507103041 16 340 11.3 20.9 0.00 0.00 0.00 88 1014.2
20260507102555 16 5 11.3 20.9 0.00 0.00 0.00 88 1013.7
20260507101553 16 9 9.7 19.3 0.00 0.00 0.00 88 1014.1
20260507101103 16 333 9.7 16.1 0.00 0.00 0.00 88 1014.2
20260507100609 16 350 12.9 20.9 0.00 0.00 0.00 88 1013.9
20260507100034 16 344 9.7 20.9 0.00 0.00 0.00 88 1013.8
20260507095538 16 350 11.3 17.7 0.00 0.00 0.00 88 1013.6
20260507094605 16 335 6.4 19.3 0.00 0.00 0.00 88 1013.5
20260507094108 16 360 8.0 19.3 0.00 0.00 0.00 88 1013.4
20260507093619 16 26 12.9 19.3 0.00 0.00 0.00 87 1013.7
20260507093042 16 360 8.0 17.7 0.00 0.00 0.00 87 1013.7
20260507092551 16 337 11.3 17.7 0.00 0.00 0.00 87 1013.8
20260507091612 16 29 6.4 12.9 0.00 0.00 0.00 87 1013.6
20260507091101 16 15 4.8 11.3 0.00 0.00 0.00 87 1013.3
20260507090100 16 14 4.8 12.9 0.00 0.00 0.00 87 1013.3
20260507085613 16 43 3.2 16.1 0.00 0.00 0.00 87 1013.0
20260507085055 16 20 6.4 14.5 0.00 0.00 0.00 87 1013.1
20260507084524 16 31 6.4 16.1 0.00 0.00 0.00 87 1012.8
20260507084027 16 59 8.0 16.1 0.00 0.00 0.00 87 1012.6
20260507083055 16 24 8.0 16.1 0.00 0.00 0.00 87 1013.0
20260507082558 16 60 8.0 14.5 0.00 0.00 0.00 86 1012.8
20260507081619 16 25 9.7 16.1 0.00 0.00 0.00 86 1013.3
20260507081129 16 30 9.7 16.1 0.00 0.00 0.00 86 1013.4
20260507080612 16 28 8.0 17.7 0.00 0.00 0.00 86 1013.6
20260507080040 16 27 8.0 17.7 0.00 0.00 0.00 86 1013.7
20260507075556 16 30 8.0 16.1 0.00 0.00 0.00 86 1013.2
20260507074614 16 26 8.0 19.3 0.00 0.00 0.00 86 1013.5
20260507074106 16 26 9.7 20.9 0.00 0.00 0.00 86 1013.1
20260507073105 16 33 9.7 19.3 0.00 0.00 0.00 86 1013.4
20260507072608 16 54 6.4 14.5 0.00 0.00 0.00 85 1013.4
20260507072054 16 69 6.4 16.1 0.00 0.00 0.00 85 1013.6
20260507071524 16 18 9.7 16.1 0.00 0.00 0.00 85 1013.9
20260507071107 16 32 6.4 16.1 0.00 0.00 0.00 85 1013.4
20260507070618 16 71 8.0 19.3 0.00 0.00 0.00 85 1013.7
20260507070035 16 89 9.7 19.3 0.00 0.00 0.00 85 1013.4
20260507065528 16 49 6.4 20.9 0.00 0.00 0.00 85 1013.8
20260507065037 16 32 11.3 20.9 0.00 0.00 0.00 85 1013.7
20260507064535 16 53 8.0 20.9 0.00 0.00 0.00 85 1013.5
20260507064045 17 324 12.9 20.9 0.00 0.00 0.00 85 1013.2
20260507063526 17 34 8.0 20.9 0.00 0.00 0.00 85 1013.7
20260507063045 17 36 9.7 20.9 0.00 0.00 0.00 85 1013.7
20260507062533 17 42 6.4 17.7 0.00 0.00 0.00 85 1014.1
20260507062043 17 360 9.7 17.7 0.00 0.00 0.00 85 1014.1
20260507061534 17 35 6.4 16.1 0.00 0.00 0.00 85 1013.9
20260507061042 17 26 8.0 19.3 0.00 0.00 0.00 85 1014.1
20260507060531 17 355 11.3 20.9 0.00 0.00 0.00 85 1013.9
20260507060024 17 24 12.9 20.9 0.00 0.00 0.00 85 1014.1
20260507055533 17 26 8.0 19.3 0.00 0.00 0.00 84 1013.9
20260507055042 17 360 11.3 25.7 0.00 0.00 0.00 84 1013.9
20260507054535 17 360 16.1 25.7 0.00 0.00 0.00 84 1013.9
20260507054023 17 15 11.3 17.7 0.00 0.00 0.00 84 1013.9
20260507053552 17 5 9.7 24.1 0.00 0.00 0.00 84 1013.5
20260507053022 17 40 14.5 24.1 0.00 0.00 0.00 84 1012.8
20260507052539 17 355 9.7 20.9 0.00 0.00 0.00 84 1013.8
20260507052048 17 339 11.3 19.3 0.00 0.00 0.00 84 1013.6
20260507051539 17 360 9.7 19.3 0.00 0.00 0.00 84 1013.3
20260507051028 17 349 8.0 19.3 0.00 0.00 0.00 83 1013.6
20260507050558 17 18 9.7 20.9 0.00 0.00 0.00 83 1013.7
20260507050057 17 349 11.3 24.1 0.00 0.00 0.00 83 1014.0
20260507045558 17 46 11.3 24.1 0.00 0.00 0.00 83 1013.6
20260507045108 17 10 8.0 20.9 0.00 0.00 0.00 83 1013.3
20260507044026 17 342 11.3 19.3 0.00 0.00 0.00 83 1013.4
20260507043634 17 15 9.7 22.5 0.00 0.00 0.00 83 1013.5
20260507043038 17 360 9.7 17.7 0.00 0.00 0.00 83 1013.4
20260507042548 17 24 9.7 22.5 0.00 0.00 0.00 83 1013.5
20260507041609 17 341 14.5 20.9 0.00 0.00 0.00 83 1013.4
20260507041058 17 5 11.3 22.5 0.00 0.00 0.00 83 1013.4
20260507040058 17 321 11.3 24.1 0.00 0.00 0.00 83 1013.4
20260507035541 17 32 9.7 19.3 0.00 0.00 0.00 83 1013.1
20260507034602 17 5 12.9 24.1 0.00 0.00 0.00 83 1013.3
20260507034032 17 24 12.9 24.1 0.00 0.00 0.00 83 1013.2
20260507033635 17 345 11.3 20.9 0.00 0.00 0.00 83 1013.1
20260507033044 17 5 11.3 24.1 0.00 0.00 0.00 83 1013.0
20260507032554 17 360 16.1 24.1 0.00 0.00 0.00 83 1013.0
20260507031615 17 347 12.9 24.1 0.00 0.00 0.00 83 1013.1
20260507031057 17 28 14.5 24.1 0.00 0.00 0.00 83 1012.7
20260507025605 17 313 14.5 25.7 0.00 0.00 0.00 83 1012.8
20260507025115 17 349 16.1 25.7 0.00 0.00 0.00 83 1012.7
20260507024534 17 306 12.9 25.7 0.00 0.00 0.00 83 1013.0
20260507024046 17 355 9.7 25.7 0.00 0.00 0.00 83 1012.3
20260507023553 17 343 16.1 22.5 0.00 0.00 0.00 83 1012.2
20260507023117 17 323 14.5 24.1 0.00 0.00 0.00 83 1012.1
20260507022531 17 340 12.9 24.1 0.00 0.00 0.00 83 1012.2
20260507022135 17 360 12.9 24.1 0.00 0.00 0.00 83 1012.0
20260507021539 17 340 17.7 24.1 0.00 0.00 0.00 83 1011.9
20260507021043 17 360 14.5 24.1 0.00 0.00 0.00 83 1012.0
20260507020112 17 346 11.3 22.5 0.00 0.00 0.00 83 1011.7
20260507015611 17 15 16.1 24.1 0.00 0.00 0.00 83 1011.7
20260507014610 18 338 17.7 24.1 0.00 0.00 0.00 83 1011.5
20260507014120 18 309 12.9 24.1 0.00 0.00 0.00 82 1011.6
20260507013607 18 360 8.0 19.3 0.00 0.00 0.00 82 1011.3
20260507013032 18 333 12.9 20.9 0.00 0.00 0.00 82 1011.4
20260507012541 18 322 11.3 20.9 0.00 0.00 0.00 82 1011.3
20260507011602 18 340 12.9 20.9 0.00 0.00 0.00 82 1010.9
20260507011112 18 355 9.7 20.9 0.00 0.00 0.00 82 1011.0
20260507010113 18 316 16.1 24.1 0.00 0.00 0.00 82 1010.7
20260507005556 18 323 14.5 20.9 0.00 0.00 0.00 82 1010.5
20260507004618 18 327 16.1 24.1 0.00 0.00 0.00 81 1010.5
20260507004032 18 330 9.7 24.1 0.00 0.00 0.00 81 1010.7
20260507003054 18 327 16.1 27.4 0.00 0.00 0.00 80 1010.3
20260507002543 19 325 14.5 25.7 0.00 0.00 0.00 80 1010.3
20260507001603 19 336 14.5 29.0 0.00 0.00 0.00 80 1010.2
20260507001113 19 350 17.7 29.0 0.00 0.00 0.00 80 1010.2
20260507000618 19 360 12.9 22.5 0.00 0.00 0.00 79 1010.2
20260507000045 20 355 12.9 24.1 0.00 0.00 0.00 79 1010.0
20260506235028 20 348 12.9 24.1 0.00 0.00 0.00 79 1010.1
20260506234033 20 5 19.3 29.0 0.00 0.00 0.00 78 1009.9
20260506233051 20 338 12.9 27.4 0.00 0.00 0.00 78 1009.8
20260506232602 20 340 14.5 27.4 0.00 0.00 0.00 78 1009.7
20260506232105 20 333 16.1 27.4 0.00 0.00 0.00 78 1009.6
20260506231531 20 345 16.1 27.4 0.00 0.00 0.00 78 1009.6
20260506231038 20 342 16.1 25.7 0.00 0.00 0.00 78 1009.5
20260506230105 20 346 16.1 24.1 0.00 0.00 0.00 78 1009.5
20260506225608 20 326 16.1 24.1 0.00 0.00 0.00 77 1009.6
20260506224616 20 329 17.7 30.6 0.00 0.00 0.00 78 1009.6
20260506224117 20 360 19.3 30.6 0.00 0.00 0.00 78 1009.6
20260506223606 20 355 16.1 27.4 0.00 0.00 0.00 78 1009.6
20260506223025 20 331 16.1 27.4 0.00 0.00 0.00 78 1009.5
20260506222535 20 360 19.3 27.4 0.00 0.00 0.00 79 1009.4
20260506221536 20 355 19.3 33.8 0.00 0.00 0.00 78 1009.6
20260506221050 20 338 20.9 33.8 0.00 0.00 0.00 78 1009.4
20260506220111 21 321 16.1 25.7 0.00 0.00 0.00 79 1009.5
20260506215554 21 330 17.7 30.6 0.00 0.00 0.00 78 1009.4
20260506214621 22 347 19.3 29.0 0.00 0.00 0.00 79 1009.2
20260506214103 23 317 16.1 25.7 0.00 0.00 0.00 80 1009.1
20260506213614 23 326 16.1 30.6 0.00 0.00 0.00 79 1009.1
20260506213033 24 346 19.3 30.6 0.00 0.00 0.00 79 1009.0
20260506212550 25 342 14.5 27.4 0.00 0.00 0.00 81 1008.8
20260506211550 25 9 16.1 24.1 0.00 0.00 0.00 80 1008.8
20260506211033 26 321 16.1 24.1 0.00 0.00 0.00 79 1008.8
20260506205611 26 331 8.0 17.7 0.00 0.00 0.00 80 1008.9
20260506205118 26 343 6.4 16.1 0.00 0.00 0.00 81 1008.7
20260506204535 26 355 11.3 17.7 0.00 0.00 0.00 80 1008.8
20260506204026 26 300 12.9 17.7 0.00 0.00 0.00 80 1008.8
20260506203637 26 335 8.0 12.9 0.00 0.00 0.00 79 1008.8
20260506203041 26 338 8.0 19.3 0.00 0.00 0.00 81 1008.7
20260506202551 26 341 12.9 19.3 0.00 0.00 0.00 80 1008.8
20260506201551 26 17 8.0 14.5 0.00 0.00 0.00 80 1008.7
20260506201101 26 320 6.4 14.5 0.00 0.00 0.00 80 1008.7